Tracking 28237 objects as of 29-Nov-2023
HD Live streaming from Space Station
objects crossing your sky now

ARIANE 5 R/B

Track ARIANE 5 R/B now!


NORAD ID: 25990
Int'l Code: 1999-066B
Perigee: 8,738.0 km
Apogee: 103,916.1 km
Inclination: 68.6 °
Period: 2,604.0 minutes
Semi major axis: 62698 km
RCS: 6.3096 m2 (large)
Launch date: December 10, 1999
Source: France (FR)
Launch site: FRENCH GUIANA (FRGUI)

Note: This is a ROCKET BODY
Your satellite tracking list
Your tracking list is empty




NASA's NSSDC Master Catalog

Two Line Element Set (TLE):
1 25990U 99066B   23331.06461061 -.00000731  00000-0  00000-0 0  9993
2 25990  68.6067 323.9674 7590193 108.9253 340.6311  0.55299589 20200
Source of the keplerian elements: AFSPC